Flag for U.S.A. Weather past 2 weeks in Philadelphia, Pennsylvania, U.S.A.

Now
79 °F

Mostly cloudy.


Feels Like: 81 °F
Forecast: 73 / 88 °F
Wind: 10 mph from Southwest

Location: Philadelphia International Airport

Current Time: Aug 31, 2015 at 1:29:27 AM

Latest Report: Aug 31, 2015 at 12:54 AM


Visibility: 10 mi

Pressure: 30.07 "Hg

Humidity: 62%

Dew point: 65 °F

Location of PhiladelphiaLocation

Historic Weather in Philadelphia — Graph

°F

Philadelphia temperature yesterday

Maximum temperature yesterday: 90 °F (at 3:54 PM)
Minimum temperature yesterday: 70 °F (at 6:54 AM)
Average temperature yesterday: 80 °F

Past Weeks' High & Low Weather Summary

 TemperatureHumidityPressure
High94 °F (Aug 17, 3:54 PM)91% (Aug 19, 6:54 AM)30.23 "Hg (Aug 19, 6:54 AM)
Low64 °F (Aug 27, 5:54 AM)22% (Aug 22, 1:54 PM)29.82 "Hg (Aug 24, 5:54 PM)
Average79 °F57%30.03 "Hg
* Reported Aug 15 11:54 PM — Aug 30 11:54 PM, Philadelphia, Weather by CustomWeather, © 2015

Note: Actual official high and low records may vary slightly from our data, if they occured in-between our weather recording intervals... More about our weather records

Advertising

Philadelphia weather history for previous 24 hours

 ConditionsComfort  
Time TempWeatherWind HumidityBarometerVisibility
11:54 PM
Sun, Aug 30
80 °FMostly cloudy.13 mph60%30.08 "Hg10 mi
10:54 PM81 °FMostly cloudy.10 mph58%30.07 "Hg10 mi
9:54 PM81 °FPassing clouds.12 mph58%30.07 "Hg10 mi
8:54 PM83 °FPassing clouds.9 mph55%30.06 "Hg10 mi
7:54 PM84 °FBroken clouds.12 mph53%30.05 "Hg10 mi
6:54 PM86 °FBroken clouds.17 mph48%30.04 "Hg10 mi
5:54 PM88 °FBroken clouds.14 mph45%30.03 "Hg10 mi
4:54 PM89 °FBroken clouds.10 mph42%30.04 "Hg10 mi
3:54 PM90 °FBroken clouds.14 mph42%30.05 "Hg10 mi
2:54 PM89 °FBroken clouds.12 mph42%30.06 "Hg10 mi
1:54 PM88 °FBroken clouds.10 mph45%30.07 "Hg10 mi
12:54 PM86 °FBroken clouds.9 mph48%30.09 "Hg10 mi
11:54 AM84 °FScattered clouds.12 mph51%30.11 "Hg10 mi
10:54 AM81 °FPartly sunny.8 mph56%30.13 "Hg10 mi
9:54 AM78 °FPartly sunny.10 mph64%30.13 "Hg10 mi
8:54 AM75 °FScattered clouds.8 mph71%30.13 "Hg10 mi
7:54 AM73 °FScattered clouds.7 mph74%30.12 "Hg10 mi
6:54 AM70 °FPassing clouds.7 mph79%30.11 "Hg10 mi
5:54 AM71 °FPassing clouds.6 mph76%30.11 "Hg10 mi
4:54 AM71 °FPassing clouds.6 mph73%30.10 "Hg10 mi
3:54 AM71 °FPassing clouds.6 mph71%30.11 "Hg10 mi
2:54 AM72 °FPassing clouds.7 mph71%30.10 "Hg10 mi
1:54 AM72 °FPassing clouds.7 mph71%30.11 "Hg10 mi
Weather by CustomWeather, © 2015

See weather overviewHow to use our weather pages